{"data":{"norad_id":54767,"epoch":"2026-05-25T03:46:13.490112Z","epoch_age_seconds":54751,"freshness":"FRESH","line1":"1 54767U 22175K   26145.15710058 -.00000314  00000+0 -16524-5 0  9993","line2":"2 54767  53.2129  60.7984 0001362  78.3482 281.7662 15.08844958191466","mean_motion":15.08844958,"eccentricity":0.0001362,"inclination_deg":53.2129,"raan_deg":60.7984,"arg_perigee_deg":78.3482,"mean_anomaly_deg":281.7662,"bstar":-1.6524e-6,"rev_number":19146,"period_min":95.437241074043,"perigee_km":538.78602113816,"apogee_km":540.670447628,"semimajor_km":6917.8652343831,"source":"CELESTRAK","updated_at":"2026-05-25T13:38:17.689634Z"}}